Location: Newark
(60.0000°N, 100.0000°E)
Time: 18:05:49
(UTC+00:00)

N. Korean satellite - Pass Details

Date: 23 November 2019
Orbit: 455 x 506 km, 97.2° (Epoch: 10 December)

Event Time Altitude Azimuth Distance (km) Brightness Sun altitude
Rises 23:12:27 0° 17° (NNE) 2,622 10.4 -16.9°
Reaches altitude 10° 23:14:36 10° 23° (NNE) 1,727 9.5 -16.6°
Maximum altitude 23:18:15 53° 100° (E) 627 7.5 -16.2°
Drops below altitude 10° 23:21:50 10° 179° (S) 1,693 9.5 -15.7°
Sets 23:23:55 0° 184° (S) 2,563 10.4 -15.5°
